[[{"header":{"parameterUnit":"m.s-1","parameterCategory":1,"la1":30.2991,"la2":30.254,"lo1":-89.0895,"lo2":-89.0444,"dy":0.0017,"dx":0.0017,"nx":28,"ny":28,"refTime":"2025-12-31T09:00:00:Z","depth":0,"parameterNumber":2,"parameterNumberName":"U-component_of_WINDS"},"data":[0,0,0,0,0,0,0,0,0,0,0,0,0,0,0,0,0,0,0,0,0,0,0,0,0,0,0,0,0,0,0,0,0,0,0,0,0,0,0,0,0,0,0,0,0,0,0,0,0,0,0,0,0,0,0,0,0,0,2.1436,2.1439,0,2.1664,2.1667,2.167,2.1719,2.1718,2.1716,2.1715,2.1952,2.196,2.1967,0,0,0,0,0,0,0,0,0,0,0,0,0,2.1046,2.1053,2.1436,2.1439,2.1442,2.1664,2.1667,2.167,2.172,2.1718,2.1716,2.1714,2.1949,2.1959,2.1968,0,0,0,0,0,0,0,0,0,0,0,0,0,2.1239,2.1055,2.1436,2.1493,2.1501,2.1663,2.1667,2.1671,2.172,2.1718,2.1715,2.1713,2.1946,2.1958,2.1969,2.2092,0,0,2.2005,2.2011,0,0,0,0,0,0,0,0,2.1228,2.1253,2.1482,2.149,2.1498,2.1661,2.1617,2.1812,2.1721,2.1637,2.1715,2.1712,2.1857,2.1876,2.1925,2.2103,2.2113,2.2006,2.2014,2.2019,2.2022,0,0,0,0,0,0,0,2.1215,2.1244,2.1527,2.1485,2.1495,2.1509,2.1533,2.1654,2.1758,2.1644,2.1648,2.1674,2.1861,2.1913,2.1931,2.2117,2.2006,2.2017,2.2024,2.2029,2.2407,2.241,0,0,0,0,0,0,2.1191,2.1232,2.1519,2.1533,2.1354,2.1518,2.1545,2.1611,2.1757,2.1777,2.1676,2.1676,2.1894,2.1917,2.1939,2.2091,2.2019,2.203,2.2036,2.2404,2.2407,2.2411,0,0,0,0,0,0,2.1182,2.1216,2.151,2.1384,2.1423,2.1527,2.1601,2.1617,2.1669,2.1782,2.1801,2.171,2.1893,2.1923,2.2053,2.21,2.2035,2.2046,2.24,2.2405,2.2409,2.2397,0,0,0,0,0,0,2.1171,2.1213,2.1259,2.1385,2.1429,2.1619,2.1604,2.1623,2.1689,2.169,2.1818,2.1837,2.1893,2.2035,2.2065,2.2115,2.2055,2.2397,2.2402,2.2408,2.2394,2.24,2.2406,0,0,0,0,0,2.1157,2.1248,2.1261,2.1296,2.149,2.1622,2.1647,2.1709,2.1692,2.174,2.1813,2.1833,2.2091,2.2048,2.2082,2.2137,2.2394,2.2401,2.2407,2.2391,2.2399,2.2406,0,0,0,0,0,0,2.1127,2.1265,2.1282,2.1416,2.1507,2.163,2.1693,2.1716,2.1815,2.1812,2.1886,2.1915,2.2041,2.2103,2.2053,2.2263,2.2242,2.2255,2.2218,2.2227,2.2233,2.2215,2.2065,0,0,0,0,0,2.1135,2.123,2.1347,2.1454,2.1498,2.1587,2.1647,2.1687,2.1785,2.1823,2.1905,2.2,2.2102,2.2168,2.2269,2.2403,2.2432,2.2458,2.2464,2.2469,2.2479,2.2554,2.2567,2.2433,2.2433,2.2432,0,0,2.1155,2.1242,2.1298,2.145,2.1525,2.1622,2.1619,2.1722,2.1795,2.184,2.1967,2.2031,2.2141,2.2274,2.2337,2.2329,2.2523,2.2477,2.248,2.2488,2.2562,2.2575,2.2586,2.2437,2.2436,2.2436,0,0,2.1239,2.1315,2.1412,2.1487,2.16,2.1658,2.1682,2.1802,2.1845,2.1974,2.2009,2.2098,2.2273,2.2349,2.2411,2.2525,2.2547,2.2556,2.2588,2.2661,2.2671,2.2681,2.272,2.2734,2.2566,2.2566,2.2566,0,2.1249,2.1395,2.1459,2.156,2.1626,2.167,2.1769,2.1839,2.1979,2.2024,2.2013,2.2233,2.2311,2.2461,2.2489,2.2538,2.2567,2.2541,2.2664,2.2675,2.2685,2.2723,2.2738,2.2567,2.2566,2.2566,2.2566,0,2.1402,2.1503,2.1568,2.17,2.1774,2.1873,2.1953,2.202,2.2054,2.2114,2.2245,2.2339,2.2459,2.2499,2.2533,2.2655,2.2646,2.2649,2.2629,2.2697,2.2734,2.2749,2.2567,2.2567,2.2567,2.2567,0,0,2.1473,2.1639,2.1661,2.1722,2.1849,2.1929,2.2031,2.2147,2.2202,2.2298,2.2385,2.2532,2.2535,2.2606,2.265,2.2714,2.2796,2.2709,2.2713,2.2721,2.2934,2.293,2.2946,2.2812,2.2815,2.2817,2.2925,0,2.1571,2.1753,2.1813,2.1964,2.2058,2.2101,2.219,2.2278,2.2337,2.2426,2.2493,2.2595,2.2592,2.2634,2.2699,2.2772,2.284,2.2765,2.2894,2.2897,2.2863,2.2966,2.2962,2.3058,2.294,2.2942,2.2944,0,2.1711,2.1806,2.1966,2.2081,2.2123,2.2201,2.2312,2.2396,2.2498,2.2537,2.2615,2.2654,2.2763,2.2737,2.2888,2.2836,2.2893,2.2936,2.2942,2.2955,2.2923,2.298,2.3091,2.3104,2.2968,2.2966,2.2964,0,2.1744,2.1913,2.2031,2.2081,2.2219,2.2273,2.2333,2.2432,2.2497,2.2595,2.2638,2.2748,2.2807,2.2892,2.296,2.2935,2.3105,2.3085,2.314,2.3138,2.3172,2.3169,2.3292,2.3211,2.3211,2.321,2.321,0,2.1847,2.1943,2.2047,2.2119,2.2228,2.2297,2.2403,2.2466,2.2554,2.2639,2.2684,2.2764,2.2849,2.294,2.2995,2.3111,2.3138,2.3173,2.3186,2.3168,2.3163,2.3205,2.3199,2.3214,2.3214,2.3213,2.3212,0,2.1902,2.1976,2.2106,2.2226,2.2258,2.2333,2.2435,2.2507,2.2568,2.2676,2.2705,2.2801,2.2911,2.2987,2.3129,2.3165,2.329,2.3303,2.3255,2.3261,2.3311,2.3305,2.3464,2.3488,2.3392,2.3393,2.3393,0,2.1962,2.2036,2.2163,2.2223,2.2282,2.2379,2.2445,2.2517,2.2585,2.2706,2.2763,2.2875,2.2969,2.3142,2.3225,2.3333,2.3349,2.3397,2.3365,2.3344,2.3348,2.3342,2.3349,2.3401,2.3402,2.3402,2.3403,0,2.206,2.2093,2.2186,2.2293,2.2371,2.2459,2.2548,2.2594,2.2682,2.2756,2.2867,2.294,2.3083,2.3194,2.331,2.3374,2.3403,2.3412,2.343,2.3412,2.338,2.3397,2.3266,2.3408,2.3407,2.3407,2.3407,2.3407,2.2119,2.2186,2.2285,2.2388,2.2462,2.2544,2.2617,2.2686,2.278,2.2901,2.2939,2.3054,2.3155,2.3313,2.3378,2.3471,2.3467,2.3494,2.35,2.3505,2.3504,2.3367,2.3492,2.3492,2.3492,2.3492,2.3492,0,2.2217,2.2283,2.2377,2.2499,2.258,2.2599,2.2699,2.2765,2.2866,2.2956,2.3047,2.3175,2.3282,2.3374,2.3486,2.3542,2.3558,2.3569,2.3565,2.3579,2.3501,2.3474,2.3554,2.3554,2.3554,2.3554,2.3554,2.3554,2.2278,2.2393,2.2438,2.259,2.2656,2.2768,2.2823,2.2898,2.2971,2.3111,2.32,2.3259,2.335,2.3469,2.3569,2.3593,2.3631,2.3639,2.3666,2.3591,2.3584,2.3577,2.3552,2.3647,2.3647,2.3735,2.3736,2.3737]},{"header":{"parameterUnit":"m.s-1","parameterCategory":1,"la1":30.2991,"la2":30.254,"lo1":-89.0895,"lo2":-89.0444,"dy":0.0017,"dx":0.0017,"nx":28,"ny":28,"refTime":"2025-12-31T09:00:00:Z","depth":0,"parameterNumber":3,"parameterNumberName":"V-component_of_WINDS"},"data":[0,0,0,0,0,0,0,0,0,0,0,0,0,0,0,0,0,0,0,0,0,0,0,0,0,0,0,0,0,0,0,0,0,0,0,0,0,0,0,0,0,0,0,0,0,0,0,0,0,0,0,0,0,0,0,0,0,0,1.7467,1.7468,0,1.7509,1.7509,1.751,1.7495,1.7494,1.7493,1.7492,1.7534,1.7536,1.7538,0,0,0,0,0,0,0,0,0,0,0,0,0,1.7373,1.7375,1.7467,1.7468,1.7468,1.7508,1.7509,1.751,1.7495,1.7494,1.7492,1.7491,1.7533,1.7536,1.7538,0,0,0,0,0,0,0,0,0,0,0,0,0,1.7414,1.7376,1.7467,1.7466,1.7466,1.7508,1.7509,1.751,1.7495,1.7494,1.7492,1.7491,1.7532,1.7535,1.7538,1.7585,0,0,1.7547,1.7549,0,0,0,0,0,0,0,0,1.7412,1.7418,1.7465,1.7466,1.7466,1.7495,1.7491,1.7535,1.7495,1.7484,1.7492,1.749,1.7522,1.7526,1.7537,1.7587,1.7588,1.7548,1.7549,1.7551,1.7552,0,0,0,0,0,0,0,1.7409,1.7416,1.7483,1.7466,1.7466,1.7462,1.7467,1.75,1.751,1.7485,1.7484,1.7489,1.7522,1.7534,1.7537,1.7589,1.7548,1.755,1.7552,1.7553,1.7678,1.7679,0,0,0,0,0,0,1.7406,1.7414,1.7482,1.7485,1.7435,1.7465,1.747,1.7487,1.751,1.7512,1.749,1.7488,1.7529,1.7534,1.7539,1.7594,1.7551,1.7554,1.7555,1.7676,1.7678,1.768,0,0,0,0,0,0,1.7404,1.7413,1.748,1.7449,1.7457,1.7468,1.7488,1.7489,1.75,1.7514,1.7516,1.75,1.7528,1.7535,1.7573,1.7595,1.7555,1.7558,1.7675,1.7677,1.7679,1.7705,0,0,0,0,0,0,1.7402,1.7412,1.743,1.745,1.7459,1.7515,1.7489,1.749,1.7506,1.7503,1.7524,1.7526,1.7528,1.7569,1.7576,1.7599,1.756,1.7673,1.7676,1.7678,1.7702,1.7708,1.7713,0,0,0,0,0,1.7399,1.7436,1.7431,1.744,1.7482,1.7516,1.7521,1.7523,1.7508,1.7526,1.7534,1.7525,1.7592,1.7573,1.7581,1.7605,1.7671,1.7675,1.7678,1.77,1.7707,1.7713,0,0,0,0,0,0,1.7419,1.7439,1.7434,1.7479,1.7496,1.7513,1.7536,1.753,1.7552,1.7549,1.755,1.7555,1.7594,1.7603,1.7582,1.765,1.7629,1.7634,1.7643,1.765,1.7655,1.7652,1.7562,0,0,0,0,0,1.7429,1.7455,1.7471,1.7509,1.7518,1.7525,1.754,1.754,1.7558,1.7565,1.7576,1.7593,1.7618,1.7634,1.7658,1.7703,1.7707,1.7724,1.7729,1.7733,1.7738,1.7762,1.7769,1.7691,1.7691,1.7691,0,0,1.745,1.7464,1.748,1.7513,1.7527,1.7553,1.7532,1.7561,1.7581,1.7569,1.7606,1.7615,1.7634,1.7676,1.7695,1.7685,1.776,1.7737,1.7741,1.7743,1.7766,1.7773,1.778,1.7693,1.7693,1.7693,0,0,1.7501,1.7514,1.7547,1.7561,1.7581,1.7585,1.7593,1.7612,1.7617,1.7654,1.7646,1.7668,1.7711,1.7725,1.7738,1.7792,1.7785,1.78,1.7828,1.7851,1.7857,1.7862,1.7881,1.7888,1.7804,1.7804,1.7804,0,1.7524,1.7564,1.7565,1.7595,1.7609,1.7599,1.7632,1.7645,1.7672,1.7682,1.767,1.7723,1.7735,1.778,1.7793,1.7804,1.7812,1.7798,1.7856,1.7861,1.7867,1.7885,1.7892,1.7806,1.7806,1.7806,1.7806,0,1.7591,1.7619,1.7643,1.7669,1.7686,1.7717,1.7722,1.7739,1.7737,1.7742,1.7779,1.7794,1.7819,1.783,1.7828,1.7874,1.7867,1.7856,1.7834,1.7876,1.7893,1.79,1.7808,1.7808,1.7807,1.7807,0,0,1.7658,1.7683,1.7691,1.7703,1.7723,1.7745,1.7775,1.78,1.7814,1.7833,1.7858,1.7893,1.7882,1.7897,1.7896,1.7917,1.7958,1.7902,1.7903,1.7912,1.8009,1.8017,1.8025,1.7953,1.7954,1.7955,1.8007,0,1.771,1.7764,1.7764,1.7813,1.7838,1.7829,1.7855,1.787,1.7876,1.7898,1.7904,1.7929,1.7913,1.7922,1.7942,1.7949,1.7978,1.7945,1.7976,1.7977,1.7972,1.8034,1.8044,1.8092,1.8014,1.8015,1.8016,0,1.7779,1.7799,1.7851,1.7867,1.7878,1.7901,1.7924,1.7945,1.7961,1.7964,1.7979,1.7975,1.8005,1.7983,1.8024,1.8002,1.8014,1.8019,1.8021,1.8024,1.7999,1.8039,1.8107,1.8114,1.8026,1.8025,1.8025,0,1.7822,1.7862,1.7898,1.7908,1.7928,1.7944,1.7953,1.7969,1.7983,1.8002,1.8012,1.8034,1.8047,1.8064,1.8066,1.8049,1.8107,1.8085,1.8109,1.8109,1.8122,1.8121,1.8193,1.813,1.813,1.813,1.813,0,1.7881,1.7912,1.7917,1.7939,1.7974,1.7974,1.8008,1.8016,1.8029,1.8052,1.8045,1.8066,1.8068,1.8089,1.8091,1.8124,1.813,1.8132,1.8132,1.8133,1.8133,1.8141,1.8138,1.8132,1.8131,1.8131,1.8131,0,1.7935,1.7939,1.7978,1.7993,1.7997,1.8022,1.8035,1.8056,1.806,1.8089,1.8096,1.8103,1.8128,1.8131,1.8161,1.8162,1.8201,1.8198,1.8196,1.8195,1.822,1.8217,1.83,1.831,1.8241,1.8241,1.8242,0,1.7972,1.7996,1.8014,1.8029,1.8039,1.8062,1.8077,1.8078,1.8093,1.8113,1.8131,1.8155,1.8175,1.8215,1.8223,1.8245,1.8241,1.8269,1.8245,1.8244,1.8242,1.824,1.8242,1.8274,1.8274,1.8275,1.8275,0,1.8038,1.8038,1.806,1.8082,1.81,1.8117,1.8134,1.8146,1.8148,1.8166,1.8191,1.8206,1.8236,1.826,1.8281,1.829,1.8283,1.8283,1.829,1.8291,1.8288,1.8289,1.8208,1.8281,1.828,1.828,1.828,1.828,1.8084,1.8105,1.812,1.8144,1.8157,1.8172,1.8192,1.8198,1.822,1.8244,1.8242,1.827,1.8285,1.8313,1.8323,1.8344,1.8335,1.8345,1.8348,1.835,1.8353,1.8285,1.8348,1.8348,1.8348,1.8348,1.8348,0,1.8149,1.8158,1.818,1.8203,1.8222,1.8213,1.8231,1.8247,1.8271,1.8286,1.8305,1.8333,1.8356,1.8365,1.8387,1.8402,1.84,1.8408,1.8407,1.8409,1.836,1.8351,1.841,1.841,1.841,1.841,1.841,1.841,1.8185,1.8219,1.8222,1.8261,1.827,1.8297,1.8308,1.8322,1.8333,1.8365,1.8384,1.839,1.8402,1.8424,1.8444,1.8446,1.8455,1.8465,1.8465,1.8419,1.8413,1.8407,1.8399,1.8466,1.8466,1.8513,1.8513,1.8513]}]]